FW6321 Weather Reports


Display with metric or nautical units.
time (UTC)temp
F
wind
direction
speed
MPH
gust
MPH
rain 1hr
in
rain 24hr
in
rain mn
in
humidity
%
barometer
mb
20260506194606 53 23 4.0 9.0 0.00 0.01 0.01 75 1013.0
20260506194106 53 31 3.0 6.0 0.00 0.01 0.01 75 1013.0
20260506193606 53 27 2.0 4.0 0.00 0.01 0.01 75 1013.1
20260506193106 53 27 1.0 4.0 0.00 0.01 0.01 75 1013.0
20260506192605 53 62 1.0 4.0 0.00 0.01 0.01 75 1012.9
20260506192105 53 346 1.0 4.0 0.00 0.01 0.01 75 1012.8
20260506191633 53 64 2.0 3.0 0.00 0.01 0.01 75 1012.7
20260506190602 53 60 2.0 3.0 0.00 0.01 0.01 75 1012.6
20260506185603 53 79 1.0 2.0 0.00 0.01 0.01 74 1012.5
20260506185103 53 79 1.0 2.0 0.00 0.01 0.01 73 1012.4
20260506184559 53 79 1.0 3.0 0.00 0.01 0.01 72 1012.2
20260506184102 53 78 2.0 3.0 0.00 0.01 0.01 72 1012.2
20260506183600 53 79 2.0 3.0 0.00 0.01 0.01 73 1012.1
20260506183102 53 79 2.0 3.0 0.00 0.01 0.01 73 1012.1
20260506182601 54 68 1.0 3.0 0.00 0.01 0.01 73 1012.0
20260506182059 53 59 1.0 2.0 0.00 0.01 0.01 72 1012.0
20260506181600 54 59 2.0 3.0 0.00 0.01 0.01 72 1011.9
20260506181103 54 59 2.0 4.0 0.00 0.01 0.01 72 1011.8
20260506180557 54 77 2.0 4.0 0.00 0.01 0.01 72 1011.8
20260506180059 54 77 2.0 3.0 0.00 0.01 0.01 72 1011.8
20260506175635 53 58 2.0 3.0 0.00 0.01 0.01 72 1011.7
20260506174553 54 58 1.0 2.0 0.00 0.01 0.01 73 1011.5
20260506174052 54 58 1.0 4.0 0.00 0.01 0.01 74 1011.5
20260506173554 54 58 2.0 4.0 0.00 0.01 0.01 73 1011.4
20260506173052 54 65 1.0 3.0 0.00 0.01 0.01 74 1011.4
20260506172550 54 56 1.0 3.0 0.00 0.01 0.01 73 1011.3
20260506172051 54 52 2.0 3.0 0.00 0.01 0.01 73 1011.3
20260506171549 54 69 2.0 6.0 0.00 0.01 0.01 73 1011.2
20260506171117 54 70 2.0 6.0 0.00 0.01 0.01 73 1011.2
20260506170046 54 34 4.0 7.0 0.00 0.01 0.01 72 1011.1
20260506165552 54 76 4.0 8.0 0.00 0.01 0.01 71 1011.2
20260506165054 54 48 5.0 8.0 0.00 0.01 0.01 70 1011.1
20260506164622 54 62 6.0 10.0 0.00 0.01 0.01 70 1011.1
20260506163548 55 57 7.0 13.0 0.00 0.01 0.01 69 1011.2
20260506163121 55 62 8.0 13.0 0.00 0.01 0.01 67 1011.1
20260506162045 55 67 6.0 13.0 0.00 0.01 0.01 66 1011.1
20260506161547 55 347 5.0 11.0 0.00 0.01 0.01 69 1011.1
20260506161047 55 29 5.0 11.0 0.00 0.01 0.01 68 1011.1
20260506160543 55 33 5.0 11.0 0.00 0.01 0.01 68 1011.1
20260506160046 55 27 5.0 9.0 0.00 0.01 0.01 70 1011.2
20260506155542 55 71 5.0 10.0 0.00 0.01 0.01 68 1011.2
20260506155059 55 9 5.0 10.0 0.00 0.01 0.01 68 1011.1
20260506154621 55 308 7.0 10.0 0.00 0.01 0.01 68 1011.1
20260506153541 55 22 7.0 14.0 0.00 0.01 0.01 68 1011.1
20260506153048 55 71 6.0 12.0 0.00 0.01 0.01 69 1011.1
20260506152543 55 54 6.0 12.0 0.00 0.01 0.01 69 1011.0
20260506152059 55 51 6.0 12.0 0.00 0.01 0.01 69 1011.1
20260506151541 55 75 6.0 13.0 0.00 0.01 0.01 69 1011.0
20260506151042 55 93 7.0 13.0 0.00 0.01 0.01 69 1011.1
20260506150543 55 50 6.0 13.0 0.00 0.01 0.01 68 1011.1
20260506150042 55 28 6.0 13.0 0.00 0.01 0.01 69 1011.1
20260506145541 55 29 6.0 12.0 0.00 0.01 0.01 69 1011.0
20260506145047 55 47 6.0 12.0 0.00 0.01 0.01 69 1011.0
20260506144539 55 251 6.0 12.0 0.00 0.01 0.01 69 1011.0
20260506144113 55 41 6.0 12.0 0.00 0.01 0.01 69 1011.0
20260506143039 55 330 7.0 17.0 0.00 0.01 0.01 67 1011.0
20260506142541 55 4 7.0 15.0 0.00 0.01 0.01 66 1010.9
20260506142045 56 61 8.0 18.0 0.00 0.01 0.01 66 1010.9
20260506141539 56 67 9.0 18.0 0.00 0.01 0.01 65 1010.9
20260506141039 56 87 8.0 12.0 0.00 0.01 0.01 65 1010.8
20260506140537 56 46 8.0 18.0 0.00 0.01 0.01 62 1010.8
20260506140039 57 25 10.0 18.0 0.00 0.01 0.01 63 1010.8
20260506135538 57 335 10.0 18.0 0.00 0.01 0.01 60 1010.8
20260506135043 58 33 9.0 18.0 0.00 0.01 0.01 58 1010.7
20260506134617 58 28 9.0 16.0 0.00 0.01 0.01 58 1010.6
20260506133537 57 5 11.0 21.0 0.00 0.01 0.01 61 1010.6
20260506133038 57 345 10.0 20.0 0.00 0.01 0.01 62 1010.7
20260506132538 56 7 10.0 16.0 0.00 0.01 0.01 63 1010.6
20260506132042 56 354 8.0 16.0 0.00 0.01 0.01 64 1010.5
20260506131656 56 53 7.0 15.0 0.00 0.01 0.01 68 1010.5
20260506130114 56 6 6.0 14.0 0.00 0.01 0.01 71 1010.5
20260506125037 56 6 8.0 14.0 0.00 0.01 0.01 72 1010.5
20260506124538 56 357 8.0 15.0 0.00 0.01 0.01 72 1010.5
20260506124039 55 28 8.0 15.0 0.00 0.01 0.01 72 1010.5
20260506123539 55 357 9.0 15.0 0.00 0.01 0.01 72 1010.4
20260506123040 55 357 8.0 15.0 0.00 0.01 0.01 72 1010.4
20260506122536 55 27 8.0 15.0 0.00 0.01 0.01 72 1010.4
20260506122035 55 16 9.0 16.0 0.00 0.01 0.01 73 1010.3
20260506121538 55 1 9.0 17.0 0.00 0.01 0.01 74 1010.3
20260506121111 55 14 8.0 17.0 0.00 0.01 0.01 75 1010.3
20260506120037 55 314 9.0 17.0 0.00 0.01 0.01 75 1010.3
20260506115532 55 2 9.0 17.0 0.00 0.01 0.01 75 1010.3
20260506115117 55 335 9.0 16.0 0.00 0.01 0.01 77 1010.2
20260506114108 56 325 10.0 17.0 0.00 0.01 0.01 76 1010.4
20260506113035 56 10 9.0 18.0 0.00 0.01 0.01 76 1010.3
20260506112532 56 347 10.0 17.0 0.00 0.01 0.01 76 1010.3
20260506112032 56 6 10.0 18.0 0.00 0.01 0.01 75 1010.3
20260506111537 56 8 11.0 19.0 0.00 0.01 0.01 75 1010.3
20260506111033 56 3 10.0 19.0 0.00 0.01 0.01 75 1010.2
20260506110545 57 352 8.0 15.0 0.00 0.01 0.01 73 1010.3
20260506110034 57 325 7.0 15.0 0.00 0.01 0.01 74 1010.1
20260506105530 56 310 8.0 15.0 0.00 0.01 0.01 72 1010.3
20260506105033 56 339 10.0 18.0 0.00 0.01 0.01 71 1010.0
20260506104534 56 349 12.0 19.0 0.00 0.01 0.01 71 1010.1
20260506104034 57 31 11.0 19.0 0.00 0.01 0.01 70 1010.1
20260506103532 57 335 9.0 17.0 0.00 0.01 0.01 69 1010.2
20260506103031 57 31 9.0 15.0 0.00 0.01 0.01 69 1010.0
20260506102531 58 14 9.0 18.0 0.00 0.01 0.01 69 1009.9
20260506102034 58 21 9.0 18.0 0.00 0.01 0.01 69 1009.9
20260506101533 58 330 10.0 18.0 0.00 0.01 0.01 69 1010.0
20260506101038 58 358 9.0 18.0 0.00 0.01 0.01 69 1010.0
20260506100534 58 112 9.0 15.0 0.00 0.01 0.01 70 1009.9
20260506100033 58 24 9.0 19.0 0.00 0.01 0.01 71 1009.8
20260506095530 58 351 9.0 20.0 0.00 0.01 0.01 71 1009.9
20260506095032 57 349 10.0 20.0 0.00 0.01 0.01 70 1009.8
20260506094530 57 12 9.0 15.0 0.00 0.01 0.01 71 1009.8
20260506094033 57 321 10.0 17.0 0.00 0.01 0.01 71 1009.8
20260506093531 57 4 11.0 20.0 0.00 0.01 0.01 71 1010.0
20260506093031 57 21 10.0 20.0 0.00 0.01 0.01 72 1009.9
20260506092532 57 357 11.0 20.0 0.00 0.01 0.01 73 1009.8
20260506092028 57 19 11.0 20.0 0.00 0.01 0.01 73 1009.7
20260506091529 56 33 9.0 16.0 0.00 0.01 0.01 77 1009.7
20260506091030 56 339 9.0 16.0 0.00 0.01 0.01 81 1009.6
20260506090529 56 330 9.0 16.0 0.00 0.01 0.01 81 1009.5
20260506090027 56 335 9.0 16.0 0.00 0.01 0.01 82 1009.7
20260506085527 55 8 8.0 16.0 0.00 0.01 0.01 82 1009.6
20260506085026 55 1 8.0 16.0 0.00 0.01 0.01 81 1009.6
20260506084524 55 16 8.0 16.0 0.00 0.01 0.01 82 1009.6
20260506084027 55 285 8.0 16.0 0.00 0.01 0.01 83 1009.5
20260506083526 55 335 8.0 18.0 0.00 0.01 0.01 84 1009.5
20260506083028 54 26 8.0 18.0 0.00 0.01 0.01 84 1009.6
20260506082526 54 24 8.0 16.0 0.00 0.01 0.01 85 1009.4
20260506082026 54 312 9.0 17.0 0.00 0.01 0.01 85 1009.4
20260506081525 54 10 9.0 17.0 0.00 0.01 0.01 86 1009.5
20260506081058 54 330 10.0 19.0 0.00 0.01 0.01 87 1009.5
20260506072517 52 282 9.0 16.0 0.00 0.01 0.01 90 1009.4
20260506072014 52 318 8.0 16.0 0.00 0.01 0.01 90 1009.6
20260506071513 52 330 6.0 12.0 0.00 0.01 0.01 91 1009.4
20260506071052 52 19 8.0 14.0 0.00 0.01 0.01 91 1009.2
20260506062513 50 23 9.0 16.0 0.00 0.01 0.01 94 1009.0
20260506062011 50 10 9.0 16.0 0.00 0.01 0.01 94 1009.1
20260506061510 50 330 9.0 18.0 0.00 0.01 0.01 95 1009.1
20260506061008 50 325 8.0 18.0 0.00 0.01 0.01 95 1009.0
20260506060507 50 306 7.0 15.0 0.00 0.01 0.01 95 1009.0
20260506051005 49 330 6.0 10.0 0.00 0.01 0.01 96 1009.1
20260506050506 49 297 6.0 14.0 0.00 0.01 0.01 96 1009.2
20260506050109 49 335 7.0 14.0 0.00 0.01 0.01 96 1009.2
20260506044514 49 35 8.0 13.0 0.01 0.01 0.01 96 1009.2
20260506044005 49 321 6.0 13.0 0.01 0.01 0.01 96 1009.2
20260506043534 49 318 5.0 10.0 0.01 0.01 0.01 96 1009.2
20260506042534 49 307 5.0 12.0 0.01 0.01 0.01 96 1009.2
20260506041504 49 330 5.0 9.0 0.01 0.01 0.01 96 1009.2
20260506041004 49 330 5.0 11.0 0.01 0.01 0.01 95 1009.2
20260506040503 48 321 6.0 11.0 0.01 0.01 0.01 95 1009.3
20260506040012 48 344 6.0 12.0 0.01 0.01 0.01 95 1009.3
20260506035505 48 339 5.0 12.0 0.01 0.01 0.01 95 1009.3
20260506035005 48 16 6.0 11.0 0.00 0.00 0.00 95 1009.4
20260506034507 48 325 7.0 11.0 0.00 0.00 0.00 94 1009.4
20260506034006 49 349 8.0 13.0 0.00 0.00 0.00 94 1009.4
20260506033502 49 12 7.0 13.0 0.00 0.00 0.00 94 1009.4
20260506033005 49 39 6.0 13.0 0.00 0.00 0.00 94 1009.4
20260506032505 49 319 7.0 13.0 0.00 0.00 0.00 94 1009.5
20260506032005 49 353 7.0 13.0 0.00 0.00 0.00 94 1009.5
20260506031504 49 356 6.0 11.0 0.00 0.00 0.00 93 1009.4
20260506031004 49 10 7.0 11.0 0.00 0.00 0.00 93 1009.5
20260506030503 49 339 6.0 11.0 0.00 0.00 0.00 92 1009.5
20260506030004 49 330 6.0 14.0 0.00 0.00 0.00 92 1009.5
20260506025503 49 318 7.0 14.0 0.00 0.00 0.00 91 1009.6
20260506025004 49 347 8.0 15.0 0.00 0.00 0.00 91 1009.7
20260506024503 50 353 7.0 15.0 0.00 0.00 0.00 90 1009.6
20260506024004 49 6 5.0 13.0 0.00 0.00 0.00 90 1009.6
20260506023531 49 316 6.0 10.0 0.00 0.00 0.00 90 1009.5
20260506022504 49 318 6.0 11.0 0.00 0.00 0.00 90 1009.6
20260506022006 49 314 7.0 11.0 0.00 0.00 0.00 90 1009.6
20260506021505 49 325 6.0 11.0 0.00 0.00 0.00 90 1009.6
20260506021005 49 330 6.0 11.0 0.00 0.00 0.00 89 1009.5
20260506020502 49 330 6.0 12.0 0.00 0.00 0.00 89 1009.6
20260506020119 49 353 6.0 12.0 0.00 0.00 0.00 89 1009.6
20260506014505 49 330 5.0 9.0 0.00 0.00 0.00 89 1009.5
20260506014025 49 308 5.0 9.0 0.00 0.00 0.00 89 1009.6
20260506013005 49 349 5.0 10.0 0.00 0.00 0.00 89 1009.7
20260506012504 49 317 6.0 10.0 0.00 0.00 0.00 88 1009.7
20260506012003 49 325 6.0 10.0 0.00 0.00 0.00 88 1009.7
20260506011504 49 339 6.0 11.0 0.00 0.00 0.00 88 1009.7
20260506011004 50 306 6.0 11.0 0.00 0.00 0.00 88 1009.8
20260506010502 50 353 6.0 12.0 0.00 0.00 0.00 89 1009.9
20260506010106 50 339 6.0 12.0 0.00 0.00 0.00 89 1009.9
20260506004512 50 4 6.0 12.0 0.00 0.00 0.00 88 1010.0
20260506004045 50 330 5.0 12.0 0.00 0.00 0.00 88 1010.1
20260506003002 50 325 7.0 16.0 0.00 0.00 0.00 87 1010.2
20260506002504 50 339 8.0 16.0 0.00 0.00 0.00 87 1010.2
20260506002002 50 345 7.0 14.0 0.00 0.00 0.00 86 1010.2
20260506001502 50 339 7.0 15.0 0.00 0.00 0.00 86 1010.3
20260506001005 49 10 7.0 15.0 0.00 0.00 0.00 86 1010.3
20260506000504 49 1 6.0 15.0 0.00 0.00 0.00 86 1010.3
20260506000042 49 343 6.0 15.0 0.00 0.00 0.00 85 1010.3
20260505235035 49 319 6.0 11.0 0.00 0.00 0.00 85 1010.4
20260505233959 49 330 6.0 11.0 0.00 0.00 0.00 85 1010.5
20260505233458 49 343 5.0 11.0 0.00 0.00 0.00 85 1010.5
20260505232959 49 357 6.0 11.0 0.00 0.00 0.00 85 1010.5
20260505232501 49 342 5.0 11.0 0.00 0.00 0.00 84 1010.6
20260505232000 49 330 5.0 9.0 0.00 0.00 0.00 84 1010.6
20260505231459 49 306 5.0 10.0 0.00 0.00 0.00 84 1010.7
20260505231000 49 320 5.0 11.0 0.00 0.00 0.00 84 1010.7
20260505230513 49 4 6.0 11.0 0.00 0.00 0.00 84 1010.7
20260505230036 49 355 6.0 10.0 0.00 0.00 0.00 84 1010.8
20260505224957 49 320 4.0 10.0 0.00 0.00 0.00 85 1010.9
20260505224456 49 3 4.0 11.0 0.00 0.00 0.00 85 1010.8
20260505224043 49 12 5.0 11.0 0.00 0.00 0.00 85 1010.8
20260505222959 49 335 5.0 10.0 0.00 0.00 0.00 85 1010.9
20260505222459 49 19 5.0 12.0 0.00 0.00 0.00 85 1010.9
20260505222128 49 354 4.0 12.0 0.00 0.00 0.00 85 1011.0
20260505220454 49 358 6.0 12.0 0.00 0.00 0.00 85 1011.0
20260505215955 49 342 5.0 10.0 0.00 0.00 0.00 85 1011.1
20260505215453 49 318 6.0 12.0 0.00 0.00 0.00 85 1011.0
20260505214953 49 321 6.0 12.0 0.00 0.00 0.00 85 1011.1
20260505214454 49 339 6.0 11.0 0.00 0.00 0.00 85 1011.1
20260505214004 49 330 5.0 12.0 0.00 0.00 0.00 85 1011.1
20260505213449 50 339 4.0 12.0 0.00 0.00 0.00 85 1011.1
20260505213020 50 325 5.0 10.0 0.00 0.00 0.00 84 1011.1
20260505211948 50 345 7.0 14.0 0.00 0.00 0.00 83 1011.1
20260505211449 50 335 7.0 14.0 0.00 0.00 0.00 83 1011.1
20260505210959 50 325 6.0 12.0 0.00 0.00 0.00 82 1011.1
20260505210450 50 339 6.0 13.0 0.00 0.00 0.00 83 1011.2
20260505205950 51 325 6.0 13.0 0.00 0.00 0.00 83 1011.2
20260505205450 51 330 6.0 13.0 0.00 0.00 0.00 83 1011.3
20260505204951 51 4 7.0 14.0 0.00 0.00 0.00 82 1011.2
20260505204451 51 347 7.0 14.0 0.00 0.00 0.00 82 1011.3
20260505203956 51 6 8.0 15.0 0.00 0.00 0.00 82 1011.3
20260505203451 51 313 9.0 15.0 0.00 0.00 0.00 82 1011.4
20260505203028 51 325 9.0 15.0 0.00 0.00 0.00 81 1011.3
20260505201946 51 29 9.0 18.0 0.00 0.00 0.00 81 1011.4
20260505201447 51 313 8.0 18.0 0.00 0.00 0.00 81 1011.3
20260505201031 51 352 8.0 16.0 0.00 0.00 0.00 81 1011.3
20260505195946 51 13 9.0 16.0 0.00 0.00 0.00 81 1011.2
20260505195445 52 330 7.0 16.0 0.00 0.00 0.00 81 1011.2
20260505195018 52 335 7.0 15.0 0.00 0.00 0.00 81 1011.1